TimeMST,TemperatureF,Dew PointF,Humidity,Sea Level PressureIn,VisibilityMPH,Wind Direction,Wind SpeedMPH,Gust SpeedMPH,PrecipitationIn,Events,Conditions,WindDirDegrees,DateUTC
12:53 AM,28.0,24.1,85,30.37,10.0,ESE,4.6,-,N/A,,Clear,120,2013-03-02 07:53:00
1:53 AM,26.1,23.0,88,30.37,10.0,SE,3.5,-,N/A,,Clear,140,2013-03-02 08:53:00
2:53 AM,25.0,21.9,88,30.38,10.0,Calm,Calm,-,N/A,,Clear,0,2013-03-02 09:53:00
3:53 AM,24.1,21.0,88,30.37,10.0,Calm,Calm,-,N/A,,Clear,0,2013-03-02 10:53:00
4:53 AM,25.0,21.0,85,30.37,10.0,East,3.5,-,N/A,,Clear,100,2013-03-02 11:53:00
5:53 AM,25.0,21.0,85,30.40,10.0,Calm,Calm,-,N/A,,Clear,0,2013-03-02 12:53:00
6:53 AM,21.0,18.0,88,30.40,10.0,SSE,4.6,-,N/A,,Clear,150,2013-03-02 13:53:00
7:53 AM,23.0,19.9,88,30.40,9.0,SSE,4.6,-,N/A,,Clear,160,2013-03-02 14:53:00
8:53 AM,28.0,24.1,85,30.38,10.0,SSE,4.6,-,N/A,,Clear,150,2013-03-02 15:53:00
9:53 AM,32.0,25.0,75,30.37,10.0,Calm,Calm,-,N/A,,Clear,0,2013-03-02 16:53:00
10:53 AM,37.9,27.0,65,30.32,10.0,Calm,Calm,-,N/A,,Clear,0,2013-03-02 17:53:00
11:53 AM,41.0,28.0,60,30.29,10.0,South,4.6,-,N/A,,Clear,190,2013-03-02 18:53:00
12:53 PM,45.0,28.9,53,30.25,10.0,South,4.6,-,N/A,,Clear,170,2013-03-02 19:53:00
1:53 PM,46.9,30.0,52,30.22,10.0,South,4.6,-,N/A,,Clear,170,2013-03-02 20:53:00
2:53 PM,46.9,30.9,54,30.21,10.0,ESE,3.5,-,N/A,,Partly Cloudy,110,2013-03-02 21:53:00
3:53 PM,44.1,30.0,58,30.19,10.0,East,6.9,-,N/A,,Mostly Cloudy,100,2013-03-02 22:53:00
4:53 PM,43.0,30.0,60,30.16,10.0,Calm,Calm,-,N/A,,Scattered Clouds,0,2013-03-02 23:53:00
5:53 PM,42.1,30.9,65,30.13,10.0,Calm,Calm,-,N/A,,Clear,0,2013-03-03 00:53:00
6:53 PM,39.0,30.0,70,30.13,10.0,Calm,Calm,-,N/A,,Partly Cloudy,0,2013-03-03 01:53:00
7:53 PM,37.0,30.9,79,30.09,10.0,SE,3.5,-,N/A,,Clear,130,2013-03-03 02:53:00
8:53 PM,37.0,30.9,79,30.04,10.0,SE,3.5,-,N/A,,Clear,140,2013-03-03 03:53:00
9:53 PM,35.1,30.0,82,30.02,10.0,SW,5.8,-,N/A,,Clear,220,2013-03-03 04:53:00
10:53 PM,34.0,30.0,85,29.98,10.0,NNW,4.6,-,N/A,,Clear,330,2013-03-03 05:53:00
11:53 PM,34.0,30.0,85,29.96,10.0,NW,10.4,-,N/A,,Clear,320,2013-03-03 06:53:00